Weather History for KMGY - December, 2013

Change the Weather History Date:

Wednesday, December 18, 2013

  Actual Average (KFFO) Record (KFFO)
Temperature  
Mean Temperature 27 °F -  
Max Temperature 36 °F 36 °F 59 °F (2006)
Min Temperature 21 °F 22 °F 6 °F (2000)
Degree Days  
Heating Degree Days 38    
Moisture  
Dew Point 17 °F    
Average Humidity 66    
Maximum Humidity 88    
Minimum Humidity 48    
Precipitation  
Precipitation 0.00 in - - ()
Sea Level Pressure  
Sea Level Pressure 30.18 in    
Wind  
Wind Speed 9 mph (SW)    
Max Wind Speed 18 mph    
Max Gust Speed 21 mph    
Visibility 9 miles    
Events      
Averages and records for this station are not official NWS values.
T = Trace of Precipitation, MM = Missing Value Source: NWS Daily Summary

Daily Weather History Graph

Daily Weather History Graph

Search for Another Location

Airport or City:

Trip Planner

Search our weather history database for the weather conditions in past years. The results will help you decide how hot, cold, wet, or windy it might be!

Date:

Astronomy

Dec. 18, 2013 Rise Set
Actual Time 7:52 AM EST 5:14 PM EST
Civil Twilight 7:22 AM EST 5:45 PM EST
Nautical Twilight 6:48 AM EST 6:19 PM EST
Astronomical Twilight 6:15 AM EST 6:51 PM EST
Moon 6:45 PM EST (12/18) 8:31 AM EST (12/18)
Length of Visible Light 10h 23m
Length of Day
9h 22m
Full, 98% of the Moon is Illuminated
Dec 18
Full
Dec 25
Last Quarter
Jan 1
New
Jan 7
First Quarter
Jan 15
Full

Hourly Weather History & Observations

Time (EST) Temp. Windchill Dew Point Humidity Pressure Visibility Wind Dir Wind Speed Gust Speed Precip Events Conditions
12:53 AM 27.0 °F 18.7 °F 23.0 °F 85% 30.15 in 8.0 mi WSW 8.1 mph - N/A   Partly Cloudy
1:53 AM 27.0 °F 17.3 °F 23.0 °F 85% 30.15 in 7.0 mi SW 10.4 mph - N/A   Clear
2:53 AM 26.1 °F 16.8 °F 23.0 °F 88% 30.16 in 7.0 mi WSW 9.2 mph - N/A   Clear
3:53 AM 26.1 °F 16.8 °F 23.0 °F 88% 30.17 in 6.0 mi WSW 9.2 mph - N/A   Clear
4:53 AM 24.1 °F 16.0 °F 21.0 °F 88% 30.17 in 7.0 mi WSW 6.9 mph - N/A   Clear
5:53 AM 23.0 °F 14.7 °F 19.0 °F 85% 30.19 in 9.0 mi WSW 6.9 mph - N/A   Clear
6:53 AM 21.9 °F 13.4 °F 17.1 °F 82% 30.21 in 10.0 mi WSW 6.9 mph - N/A   Clear
7:53 AM 21.9 °F 11.7 °F 16.0 °F 78% 30.22 in 10.0 mi WSW 9.2 mph - N/A   Clear
8:53 AM 21.9 °F 13.4 °F 15.1 °F 75% 30.24 in 10.0 mi WSW 6.9 mph - N/A   Clear
9:53 AM 23.0 °F 11.7 °F 16.0 °F 74% 30.26 in 10.0 mi WSW 11.5 mph 16.1 mph N/A   Clear
10:53 AM 25.0 °F 16.3 °F 17.1 °F 72% 30.27 in 10.0 mi WSW 8.1 mph - N/A   Partly Cloudy
11:53 AM 25.0 °F 15.5 °F 14.0 °F 63% 30.27 in 10.0 mi West 9.2 mph - N/A   Clear
12:53 PM 27.0 °F 17.3 °F 14.0 °F 58% 30.26 in 10.0 mi WSW 10.4 mph - N/A   Clear
1:53 PM 28.9 °F 19.8 °F 14.0 °F 54% 30.25 in 10.0 mi WSW 10.4 mph 16.1 mph N/A   Clear
2:53 PM 30.9 °F 22.8 °F 14.0 °F 50% 30.23 in 10.0 mi WSW 9.2 mph - N/A   Clear
3:53 PM 32.0 °F 23.6 °F 14.0 °F 48% 30.21 in 10.0 mi SSW 10.4 mph - N/A   Clear
4:53 PM 32.0 °F 24.8 °F 15.1 °F 50% 30.19 in 10.0 mi SSW 8.1 mph - N/A   Clear
5:53 PM 30.0 °F 21.7 °F 15.1 °F 54% 30.17 in 10.0 mi South 9.2 mph - N/A   Clear
6:53 PM 30.0 °F 21.7 °F 16.0 °F 56% 30.16 in 10.0 mi South 9.2 mph - N/A   Clear
7:53 PM 30.9 °F 21.7 °F 16.0 °F 54% 30.13 in 10.0 mi South 11.5 mph - N/A   Clear
8:53 PM 32.0 °F 20.8 °F 17.1 °F 54% 30.10 in 10.0 mi South 17.3 mph - N/A   Clear
9:53 PM 33.1 °F 22.6 °F 17.1 °F 52% 30.08 in 10.0 mi South 16.1 mph - N/A   Clear
10:53 PM 33.1 °F 21.9 °F 18.0 °F 54% 30.06 in 10.0 mi SSW 18.4 mph - N/A   Clear
11:53 PM 36.0 °F 28.0 °F 18.0 °F 48% 30.06 in 10.0 mi SSW 11.5 mph 20.7 mph N/A   Clear